COSMOS 2221 (22236 NORAD) Tracking and Keplerian Element Data

This shows tracking and keplerian element data for the satellite.

Feedback or suggestion? Click here.




ElementValue
Catalog22236
NameCOSMOS 2221
Epoch Orbit66334
Epoch Day12.92163881
Epoch Year2024
RAAN309.5256
Inclination82.5083
Eccentricity0.0014557
Argument of Perigee312.9557
Mean Anonmoly47.044
Mean Motion14.90817383
Decay Rate3.362E-05
L11 22236U 92080A 24012.92163881 .00003362 00000+0 33868-3 0 9995
L22 22236 82.5083 309.5256 0014557 312.9557 47.0440 14.90817383663342



Live tracking and technical data element details for COSMOS 2221 (NORAD 22236). COSMOS 2221 can be tracked NOW for your location showing map with azimuth and elevation plus other details from your city location.







IsCatalogInMostPopularTable: catalog: 22236, numindb: 156
Update: records affected: 1



GetName: 22236 COSMOS 2221

Hit Count: updated at: Fri, 19 Apr 2024 12:32:29 GMT